This is the latest recevied weather packets stored in our database for station/object KC9Q. If no packets are shown the sender has not sent any weather packets the latest 10 day(s).
| Time | Temp. | Humidity | Pressure | Rain* | Wind** | Luminosity | Snow |
|---|---|---|---|---|---|---|---|
| 1777701508 | 10° C | 71% | 1016.7 hPa | 0 mm | - | 0 W/m² | - |
| 1777701206 | 10° C | 70% | 1016.7 hPa | 0 mm | - | 0 W/m² | - |
| 1777700905 | 10° C | 74% | 1016.8 hPa | 0 mm | - | 0 W/m² | - |
| 1777700602 | 10° C | 69% | 1016.6 hPa | 0 mm | - | 0 W/m² | - |
| 1777700300 | 10° C | 69% | 1016.5 hPa | 0 mm | - | 0 W/m² | - |
| 1777699996 | 10° C | 70% | 1016.8 hPa | 0 mm | - | 0 W/m² | - |
| 1777699695 | 10° C | 69% | 1016.7 hPa | 0 mm | - | 0 W/m² | - |
| 1777699392 | 10.56° C | 70% | 1016.5 hPa | 0 mm | - | 0 W/m² | - |
| 1777699090 | 10.56° C | 70% | 1016.5 hPa | 0 mm | - | 0 W/m² | - |
| 1777698789 | 10.56° C | 70% | 1016.6 hPa | 0 mm | - | 0 W/m² | - |
| 1777698484 | 10.56° C | 70% | 1016.6 hPa | 0 mm | - | 0 W/m² | - |
| 1777698180 | 10.56° C | 70% | 1016.4 hPa | 0 mm | - | 0 W/m² | - |
| 1777697878 | 10.56° C | 69% | 1016.4 hPa | 0 mm | - | 0 W/m² | - |
| 1777697574 | 11.11° C | 70% | 1016.5 hPa | 0 mm | - | 0 W/m² | - |
| 1777697271 | 10.56° C | 69% | 1016.5 hPa | 0 mm | - | 0 W/m² | - |
| 1777696967 | 10.56° C | 68% | 1016.4 hPa | 0 mm | - | 0 W/m² | - |
| 1777696665 | 10.56° C | 67% | 1016.5 hPa | 0 mm | - | 0 W/m² | - |
| 1777696362 | 10.56° C | 67% | 1016.6 hPa | 0 mm | - | 0 W/m² | - |
| 1777696062 | 10.56° C | 66% | 1016.4 hPa | 0 mm | - | 0 W/m² | - |
| 1777695759 | 11.11° C | 66% | 1016.5 hPa | 0 mm | - | 0 W/m² | - |
| 1777695457 | 11.11° C | 64% | 1016.5 hPa | 0 mm | - | 0 W/m² | - |
| 1777695154 | 11.11° C | 65% | 1016.6 hPa | 0 mm | - | 0 W/m² | - |
| 1777694851 | 11.11° C | 67% | 1016.4 hPa | 0 mm | - | 0 W/m² | - |
| 1777694548 | 10.56° C | 67% | 1016.7 hPa | 0 mm | - | 0 W/m² | - |
| 1777694244 | 10.56° C | 67% | 1016.9 hPa | 0 mm | - | 0 W/m² | - |
* Rain latest hour (hover to see other rain measurements)
** Current wind speed in m/s (hover to see current wind gust speed)